Weather History for Metropolis, IL

Change the Weather History Date:

Monday, April 29, 2013

  Actual Average (KPAH) Record (KPAH)
Temperature  
Mean Temperature 59 °F 62 °F  
Max Temperature 74 °F 74 °F 89 °F (1987)
Min Temperature 44 °F 51 °F 33 °F (2008)
Degree Days  
Heating Degree Days 6 5  
Month to date heating degree days 240  
Since 1 July heating degree days 4059  
Cooling Degree Days 0 2  
Month to date cooling degree days 36  
Year to date cooling degree days 43  
Growing Degree Days 9 (Base 50)    
Moisture  
Dew Point 53 °F    
Average Humidity 80    
Maximum Humidity 100    
Minimum Humidity 51    
Precipitation  
Precipitation 0.00 in 0.17 in 4.13 in (1984)
Month to date precipitation 4.59  
Year to date precipitation 16.11  
Snow  
Snow 0.00 in 0.00 in - ()
Month to date snowfall 0.0  
Since 1 July snowfall 9.1  
Snow Depth -    
Sea Level Pressure  
Sea Level Pressure 29.95 in    
Wind  
Wind Speed 2 mph (South)    
Max Wind Speed 9 mph    
Max Gust Speed -    
Visibility 7 miles    
Events Fog    
T = Trace of Precipitation, MM = Missing Value Source: NWS Daily Summary

Daily Weather History Graph

Daily Weather History Graph

Search for Another Location

Airport:

Trip Planner

Search our weather history database for the weather conditions in past years. The results will help you decide how hot, cold, wet, or windy it might be!

Date:

Astronomy

Apr. 29, 2013 Rise Set
Actual Time 6:02 AM CDT 7:42 PM CDT
Civil Twilight 5:34 AM CDT 8:10 PM CDT
Nautical Twilight 5:01 AM CDT 8:44 PM CDT
Astronomical Twilight 4:25 AM CDT 9:20 PM CDT
Moon No Moon Rise 9:25 AM CDT (4/29)
Length of Visible Light 14h 36m
Length of Day
13h 40m
Waning Gibbous, 80% of the Moon is Illuminated
Apr 29
Waning Gibbous
May 2
Last Quarter
May 9
New
May 17
First Quarter
May 24
Full

Hourly Weather History & Observations

Time (CDT) Temp. Dew Point Humidity Pressure Visibility Wind Dir Wind Speed Gust Speed Precip Events Conditions
12:15 AM 52.5 °F 52.5 °F 100% 29.94 in 1.5 mi Calm Calm - N/A   Scattered Clouds
12:35 AM 52.0 °F 52.0 °F 100% 29.95 in 1.0 mi Calm Calm - N/A   Overcast
12:55 AM 51.4 °F 51.4 °F 100% 29.95 in 0.5 mi Calm Calm - N/A Fog Fog
1:15 AM 50.9 °F 50.9 °F 100% 29.95 in 0.2 mi Calm Calm - N/A Fog Fog
1:35 AM 50.4 °F 50.4 °F 100% 29.95 in 0.2 mi Calm Calm - N/A Fog Fog
1:55 AM 48.9 °F 48.9 °F 100% 29.95 in 0.5 mi Calm Calm - N/A Fog Fog
2:15 AM 48.7 °F 48.7 °F 100% 29.95 in 0.5 mi Calm Calm - N/A Fog Fog
2:35 AM 48.2 °F 48.2 °F 100% 29.95 in 0.5 mi Calm Calm - N/A Fog Fog
2:55 AM 47.5 °F 47.5 °F 100% 29.95 in 0.8 mi Calm Calm - N/A   Mist
3:15 AM 46.4 °F 46.4 °F 100% 29.95 in 0.5 mi Calm Calm - N/A Fog Fog
3:35 AM 46.2 °F 46.2 °F 100% 29.95 in 0.5 mi Calm Calm - N/A Fog Fog
3:55 AM 46.2 °F 46.2 °F 100% 29.96 in 1.0 mi Calm Calm - N/A   Mist
4:15 AM 45.7 °F 45.7 °F 100% 29.96 in 0.5 mi Calm Calm - N/A Fog Fog
4:35 AM 45.9 °F 45.9 °F 100% 29.96 in 0.5 mi Calm Calm - N/A Fog Fog
4:55 AM 45.9 °F 45.9 °F 100% 29.96 in 0.5 mi Calm Calm - N/A Fog Fog
5:15 AM 45.0 °F 45.0 °F 100% 29.97 in 0.5 mi Calm Calm - N/A Fog Fog
5:55 AM 44.6 °F 44.6 °F 100% 29.98 in 0.2 mi Calm Calm - N/A Fog Fog
6:15 AM 44.8 °F 44.8 °F 100% 29.99 in 0.5 mi Calm Calm - N/A Fog Fog
6:35 AM 44.8 °F 44.8 °F 100% 29.99 in 2.5 mi Calm Calm - N/A   Clear
6:55 AM 49.1 °F 49.1 °F 100% 29.99 in 3.0 mi Calm Calm - N/A   Clear
7:15 AM 51.1 °F 51.1 °F 100% 30.00 in 3.0 mi Calm Calm - N/A   Clear
7:35 AM 53.4 °F 53.4 °F 100% 30.00 in 5.0 mi Calm Calm - N/A   Clear
7:55 AM 54.7 °F 54.7 °F 100% 30.00 in 7.0 mi Calm Calm - N/A   Clear
8:15 AM 56.1 °F 56.1 °F 100% 30.00 in 10.0 mi South 3.5 mph - N/A   Clear
8:35 AM 58.3 °F 56.1 °F 93% 30.00 in 10.0 mi SSE 3.5 mph - N/A   Clear
8:55 AM 59.5 °F 56.3 °F 89% 30.00 in 10.0 mi South 4.6 mph - N/A   Clear
9:15 AM 60.4 °F 55.9 °F 85% 30.01 in 10.0 mi South 4.6 mph - N/A   Clear
9:35 AM 61.9 °F 56.1 °F 81% 30.00 in 10.0 mi SE 5.8 mph - N/A   Clear
9:55 AM 63.5 °F 55.4 °F 75% 30.00 in 10.0 mi SSE 8.1 mph - N/A   Clear
10:15 AM 64.4 °F 53.2 °F 67% 30.00 in 10.0 mi SE 5.8 mph - N/A   Clear
10:35 AM 64.8 °F 53.2 °F 66% 30.01 in 10.0 mi SSE 6.9 mph - N/A   Clear
10:55 AM 66.0 °F 54.1 °F 65% 30.01 in 10.0 mi SSE 3.5 mph - N/A   Clear
11:15 AM 67.3 °F 54.9 °F 64% 30.01 in 10.0 mi South 6.9 mph - N/A   Scattered Clouds
11:35 AM 66.7 °F 53.4 °F 62% 30.00 in 10.0 mi SE 6.9 mph - N/A   Scattered Clouds
11:55 AM 68.4 °F 54.3 °F 61% 30.00 in 10.0 mi SSW 6.9 mph - N/A   Mostly Cloudy
12:15 PM 67.8 °F 54.3 °F 62% 30.00 in 10.0 mi South 6.9 mph - N/A   Mostly Cloudy
12:35 PM 70.0 °F 55.0 °F 59% 29.99 in 10.0 mi SSW 8.1 mph - N/A   Mostly Cloudy
12:55 PM 68.7 °F 54.7 °F 61% 29.98 in 10.0 mi South 8.1 mph - N/A   Mostly Cloudy
1:15 PM 69.4 °F 55.2 °F 60% 29.97 in 10.0 mi SSW 8.1 mph - N/A   Mostly Cloudy
1:35 PM 70.5 °F 55.0 °F 58% 29.97 in 10.0 mi South 5.8 mph - N/A   Mostly Cloudy
1:55 PM 70.9 °F 54.9 °F 57% 29.96 in 10.0 mi SSW 9.2 mph - N/A   Scattered Clouds
2:15 PM 71.6 °F 55.2 °F 56% 29.95 in 10.0 mi South 4.6 mph - N/A   Scattered Clouds
2:35 PM 71.6 °F 54.7 °F 55% 29.95 in 10.0 mi SSW 8.1 mph - N/A   Scattered Clouds
2:55 PM 72.3 °F 55.0 °F 54% 29.94 in 10.0 mi SSW 9.2 mph - N/A   Clear
3:15 PM 72.5 °F 55.2 °F 54% 29.93 in 10.0 mi SE 5.8 mph - N/A   Clear
3:35 PM 73.4 °F 55.8 °F 54% 29.92 in 10.0 mi South 5.8 mph - N/A   Clear
3:55 PM 73.2 °F 55.6 °F 54% 29.91 in 10.0 mi SSW 5.8 mph - N/A   Clear
4:15 PM 73.4 °F 55.2 °F 53% 29.90 in 10.0 mi SSE 4.6 mph - N/A   Clear
4:35 PM 73.6 °F 55.0 °F 52% 29.90 in 10.0 mi South 4.6 mph - N/A   Clear
4:55 PM 73.9 °F 55.0 °F 52% 29.89 in 10.0 mi SSE 5.8 mph - N/A   Clear
5:15 PM 73.9 °F 54.9 °F 51% 29.89 in 10.0 mi SSE 5.8 mph - N/A   Clear
5:35 PM 74.1 °F 55.6 °F 52% 29.89 in 10.0 mi SSE 3.5 mph - N/A   Clear
5:55 PM 73.8 °F 55.6 °F 53% 29.89 in 10.0 mi South 5.8 mph - N/A   Clear
6:15 PM 73.4 °F 55.4 °F 53% 29.89 in 10.0 mi South 6.9 mph - N/A   Clear
6:35 PM 72.7 °F 55.2 °F 54% 29.88 in 10.0 mi South 3.5 mph - N/A   Clear
6:55 PM 71.8 °F 55.4 °F 56% 29.88 in 10.0 mi South 4.6 mph - N/A   Clear
7:15 PM 70.9 °F 54.7 °F 56% 29.88 in 10.0 mi South 3.5 mph - N/A   Clear
7:35 PM 69.4 °F 54.9 °F 60% 29.88 in 10.0 mi Calm Calm - N/A   Clear
7:55 PM 66.0 °F 55.8 °F 69% 29.88 in 10.0 mi Calm Calm - N/A   Clear
8:15 PM 63.5 °F 55.8 °F 76% 29.88 in 10.0 mi Calm Calm - N/A   Clear
8:35 PM 63.0 °F 56.3 °F 79% 29.89 in 10.0 mi Calm Calm - N/A   Clear
8:55 PM 61.5 °F 56.3 °F 83% 29.90 in 10.0 mi Calm Calm - N/A   Clear
9:15 PM 60.6 °F 56.7 °F 87% 29.91 in 10.0 mi Calm Calm - N/A   Clear
9:35 PM 59.9 °F 57.4 °F 91% 29.91 in 10.0 mi Calm Calm - N/A   Clear
9:55 PM 59.9 °F 57.7 °F 93% 29.91 in 10.0 mi Calm Calm - N/A   Clear
10:15 PM 59.0 °F 57.6 °F 95% 29.91 in 10.0 mi Calm Calm - N/A   Clear
10:35 PM 58.3 °F 57.6 °F 97% 29.91 in 10.0 mi Calm Calm - N/A   Clear
10:55 PM 58.1 °F 57.6 °F 98% 29.91 in 10.0 mi Calm Calm - N/A   Clear
11:15 PM 56.3 °F 56.3 °F 100% 29.91 in 10.0 mi Calm Calm - N/A   Clear
11:35 PM 55.6 °F 55.6 °F 100% 29.91 in 7.0 mi Calm Calm - N/A   Clear
11:55 PM 54.9 °F 54.9 °F 100% 29.91 in 7.0 mi Calm Calm - N/A   Clear